Moline, IL

2:26 AM CDT on July 25, 2016 (GMT -0500)
Quad-City International

Weather History for KMLI - February, 2013

Change the Weather History Date:

Wednesday, February 27, 2013

  Actual Average Record
Temperature  
Mean Temperature 32 °F 32 °F  
Max Temperature 33 °F 40 °F 71 °F (1976)
Min Temperature 30 °F 23 °F -15 °F (2015)
Degree Days  
Heating Degree Days 33 33  
Month to date heating degree days 1029 1031  
Since 1 July heating degree days 4601 4765  
Cooling Degree Days 0 0  
Month to date cooling degree days 0 0  
Year to date cooling degree days 0 0  
Moisture  
Dew Point 28 °F    
Average Humidity 87    
Maximum Humidity 92    
Minimum Humidity 82    
Precipitation  
Precipitation 0.22 in 0.07 in 1.78 in (1948)
Month to date precipitation 2.51 1.52  
Year to date precipitation 5.37 3.01  
Snow  
Snow 2.20 in 0.20 in - ()
Month to date snowfall 13.7 6.6  
Since 1 July snowfall 23.3 26.5  
Snow Depth 7.00 in    
Sea Level Pressure  
Sea Level Pressure 29.72 in    
Wind  
Wind Speed 10 mph (NW)    
Max Wind Speed 16 mph    
Max Gust Speed 21 mph    
Visibility 4 miles    
Events Fog , Snow    
T = Trace of Precipitation, MM = Missing Value Source: NWS Daily Summary

Daily Weather History Graph

Daily Weather History Graph

Search for Another Location

Airport or City:

Trip Planner

Search our weather history database for the weather conditions in past years. The results will help you decide how hot, cold, wet, or windy it might be!

Date:

Astronomy

Feb. 27, 2013 Rise Set
Actual Time 6:39 AM CST 5:50 PM CST
Civil Twilight 6:11 AM CST 6:18 PM CST
Nautical Twilight 5:39 AM CST 6:50 PM CST
Astronomical Twilight 5:07 AM CST 7:22 PM CST
Moon 8:14 PM CST (2/27) 7:12 AM CST (2/27)
Length of Visible Light 12h 07m
Length of Day
11h 11m
Waning Gibbous, 96% of the Moon is Illuminated
Feb 27
Waning Gibbous
Mar 4
Last Quarter
Mar 11
New
Mar 19
First Quarter
Mar 27
Full

Hourly Weather History & Observations

Time (CST) Temp. Windchill Dew Point Humidity Pressure Visibility Wind Dir Wind Speed Gust Speed Precip Events Conditions
12:52 AM 30.9 °F 22.2 °F 28.0 °F 89% 29.65 in 4.0 mi North 10.4 mph 17.3 mph 0.00 in   Overcast
1:12 AM 30.2 °F 21.9 °F 28.4 °F 93% 29.63 in 4.0 mi North 9.2 mph - 0.00 in   Overcast
1:20 AM 30.2 °F 21.9 °F 28.4 °F 93% 29.63 in 5.0 mi North 9.2 mph - 0.00 in   Overcast
1:52 AM 30.9 °F 21.7 °F 27.0 °F 85% 29.65 in 6.0 mi North 11.5 mph - 0.00 in   Overcast
2:52 AM 30.9 °F 20.2 °F 26.1 °F 82% 29.65 in 10.0 mi North 15.0 mph 20.7 mph N/A   Overcast
3:52 AM 30.9 °F 21.7 °F 26.1 °F 82% 29.65 in 8.0 mi NNW 11.5 mph - N/A   Overcast
4:52 AM 30.0 °F 24.1 °F 26.1 °F 85% 29.67 in 7.0 mi NNW 5.8 mph - N/A   Overcast
4:59 AM 30.2 °F 22.6 °F 26.6 °F 86% 29.65 in 8.0 mi NNW 8.1 mph - N/A   Overcast
5:38 AM 30.2 °F 21.9 °F 26.6 °F 86% 29.65 in 4.0 mi NNW 9.2 mph - N/A   Overcast
5:52 AM 30.0 °F 22.4 °F 27.0 °F 88% 29.68 in 5.0 mi NNW 8.1 mph - N/A   Overcast
6:52 AM 30.0 °F 21.7 °F 26.1 °F 85% 29.68 in 5.0 mi NNW 9.2 mph - 0.01 in   Overcast
7:08 AM 30.2 °F 22.6 °F 26.6 °F 86% 29.66 in 2.5 mi NNW 8.1 mph - 0.00 in Snow Light Snow
7:52 AM 30.0 °F 21.1 °F 26.1 °F 85% 29.69 in 2.0 mi NNW 10.4 mph - 0.00 in   Overcast
7:59 AM 30.2 °F 21.3 °F 26.6 °F 86% 29.67 in 6.0 mi NNW 10.4 mph - N/A   Overcast
8:52 AM 30.9 °F 21.2 °F 26.1 °F 82% 29.70 in 9.0 mi NNW 12.7 mph - N/A   Overcast
9:07 AM 30.2 °F 21.9 °F 26.6 °F 86% 29.68 in 1.5 mi NNW 9.2 mph - 0.00 in Snow Light Snow
9:23 AM 30.2 °F 21.9 °F 26.6 °F 86% 29.68 in 0.5 mi NNW 9.2 mph 18.4 mph 0.00 in Snow Snow
9:37 AM 30.2 °F 22.6 °F 28.4 °F 93% 29.69 in 0.5 mi NW 8.1 mph - 0.01 in Fog , Snow Snow
9:52 AM 30.9 °F 23.5 °F 28.0 °F 89% 29.71 in 0.5 mi NW 8.1 mph - 0.01 in Fog , Snow Light Snow
10:10 AM 30.2 °F 22.6 °F 28.4 °F 93% 29.69 in 0.5 mi NW 8.1 mph - 0.01 in Fog , Snow Light Snow
10:52 AM 30.9 °F 22.2 °F 28.9 °F 92% 29.71 in 0.8 mi NW 10.4 mph - 0.04 in Snow Light Snow
10:59 AM 32.0 °F 24.8 °F 28.4 °F 87% 29.69 in 0.8 mi NW 8.1 mph - 0.00 in Snow Light Snow
11:07 AM 32.0 °F 23.0 °F 28.4 °F 87% 29.69 in 0.8 mi NW 11.5 mph 18.4 mph 0.00 in Snow Light Snow
11:38 AM 32.0 °F 24.2 °F 28.4 °F 87% 29.69 in 1.0 mi NW 9.2 mph - 0.02 in Snow Light Snow
11:45 AM 32.0 °F 23.6 °F 28.4 °F 87% 29.69 in 0.8 mi NW 10.4 mph - 0.02 in Snow Light Snow
11:52 AM 32.0 °F 23.6 °F 28.9 °F 88% 29.71 in 0.5 mi NW 10.4 mph - 0.02 in Fog , Snow Light Snow
12:05 PM 32.0 °F 23.0 °F 28.4 °F 87% 29.69 in 0.8 mi NW 11.5 mph - 0.00 in Snow Light Snow
12:11 PM 32.0 °F 22.1 °F 28.4 °F 87% 29.69 in 1.2 mi NW 13.8 mph - N/A Snow Light Snow
12:34 PM 32.0 °F 23.0 °F 28.4 °F 87% 29.69 in 0.8 mi NW 11.5 mph - 0.01 in Snow Light Snow
12:45 PM 32.0 °F 23.6 °F 28.4 °F 87% 29.69 in 0.8 mi NW 10.4 mph - 0.01 in Snow Light Snow
12:52 PM 32.0 °F 22.5 °F 28.9 °F 88% 29.71 in 0.5 mi NW 12.7 mph - 0.01 in Fog , Snow Light Snow
1:04 PM 32.0 °F 23.0 °F 28.4 °F 87% 29.69 in 0.8 mi NW 11.5 mph - 0.01 in Snow Light Snow
1:52 PM 33.1 °F 23.4 °F 28.9 °F 85% 29.72 in 1.2 mi NW 13.8 mph - 0.02 in Snow Light Snow
2:01 PM 33.8 °F 25.3 °F 28.4 °F 81% 29.70 in 1.5 mi NW 11.5 mph - 0.00 in Snow Light Snow
2:39 PM 33.8 °F 25.3 °F 30.2 °F 87% 29.70 in 1.2 mi NW 11.5 mph - 0.00 in Snow Light Snow
2:52 PM 33.1 °F 24.4 °F 30.0 °F 89% 29.73 in 1.5 mi NW 11.5 mph - 0.01 in Snow Light Snow
3:52 PM 33.8 °F 25.3 °F 30.2 °F 87% 29.73 in 2.0 mi NW 11.5 mph - N/A Snow Light Snow
4:40 PM 32.0 °F 23.0 °F 28.4 °F 87% 29.75 in 0.8 mi NW 11.5 mph - 0.00 in Snow Light Snow
4:52 PM 32.0 °F 23.0 °F 30.0 °F 92% 29.77 in 0.8 mi NW 11.5 mph - 0.00 in Snow Light Snow
5:27 PM 32.0 °F 23.0 °F 28.4 °F 87% 29.76 in 0.8 mi WNW 11.5 mph - 0.01 in Snow Light Snow
5:34 PM 32.0 °F 23.6 °F 28.4 °F 87% 29.77 in 2.5 mi WNW 10.4 mph - 0.01 in Snow Light Snow
5:52 PM 32.0 °F 23.0 °F 28.9 °F 88% 29.79 in 1.5 mi WNW 11.5 mph - 0.01 in Snow Light Snow
6:29 PM 32.0 °F 23.6 °F 28.4 °F 87% 29.78 in 1.5 mi WNW 10.4 mph - 0.00 in Snow Light Snow
6:41 PM 32.0 °F 23.6 °F 28.4 °F 87% 29.78 in 3.0 mi WNW 10.4 mph - 0.00 in Snow Light Snow
6:52 PM 32.0 °F 24.8 °F 28.9 °F 88% 29.81 in 2.5 mi WNW 8.1 mph - 0.00 in Snow Light Snow
7:52 PM 32.0 °F 24.2 °F 28.4 °F 87% 29.79 in 5.0 mi WNW 9.2 mph - N/A Snow Light Snow
8:08 PM 32.0 °F 24.2 °F 28.4 °F 87% 29.79 in 7.0 mi WNW 9.2 mph - 0.00 in Snow Light Snow
8:52 PM 32.0 °F 23.6 °F 28.9 °F 88% 29.82 in 10.0 mi NW 10.4 mph - 0.00 in   Overcast
9:52 PM 32.0 °F 24.2 °F 28.9 °F 88% 29.83 in 9.0 mi NW 9.2 mph - N/A   Overcast
10:38 PM 32.0 °F 26.4 °F 28.4 °F 87% 29.82 in 10.0 mi NW 5.8 mph - N/A   Mostly Cloudy
10:52 PM 32.0 °F 24.2 °F 28.0 °F 85% 29.84 in 10.0 mi NW 9.2 mph - N/A   Overcast
11:45 PM 32.0 °F 24.8 °F 28.4 °F 87% 29.82 in 10.0 mi NW 8.1 mph - N/A   Overcast
11:52 PM 32.0 °F 24.2 °F 28.9 °F 88% 29.84 in 10.0 mi NW 9.2 mph - N/A   Overcast